#timestamp,LO_Frequency,Hit,StdDev 
1582423215.6,286047001.9,P
1582423235.4,286047001.1,N
1582423255.3,286047002.2,N
1582423275.1,286047002.2,N
1582423295.8,286046999.7,N
1582423315.7,286047002.8,N
1582423335.5,286046999.8,N
1582423355.4,286047001.5,N
1582423375.2,286047000.1,N
1582423395.0,286046998.2,N
1582423395.9,286046998.2,N
1582423415.8,286047002.3,N
1582423435.6,286047007.3,Y
1582423455.5,286047005.4,P
1582423475.3,286047003.3,N
1582423495.1,286047005.7,N
1582423515.9,286047005.1,N
1582423535.7,286047003.6,N
1582423555.6,286047001.7,N
1582423575.4,286047000.9,N
1582423595.2,286046998.5,N
1582423615.1,286047000.5,N
1582423616.0,286047000.5,N
1582423635.8,286047000.3,N
1582423655.7,286047000.0,N
1582423675.5,286047000.8,N
1582423695.3,286046999.2,N
1582423715.2,286046996.9,N
1582423735.0,286047002.8,N
1582423735.9,286047002.8,N
1582423755.7,286047001.7,N
1582423775.6,286047004.4,N
1582423795.4,286047001.9,N
1582423815.3,286047003.6,N
1582423835.1,286047007.4,Y
1582423855.8,286047007.6,P
1582423875.7,286047006.0,N
1582423895.5,286047002.1,N
1582423915.4,286047000.3,N
1582423935.2,286047000.0,N
1582423955.0,286046999.9,N
1582423955.9,286046999.9,N
1582423975.8,286047004.1,N
1582423995.6,286047001.8,N
1582424015.5,286047002.3,N
1582424035.3,286046998.3,N
1582424055.1,286046999.9,N
1582424075.9,286047000.8,N
1582424095.7,286046999.3,N
1582424115.5,286046998.5,N
1582424135.4,286046999.2,N
1582424155.2,286046997.2,N
1582424175.1,286046997.6,N
1582424176.0,286046997.6,N
1582424195.8,286046997.1,N
1582424215.6,286046998.2,N
1582424235.5,286047000.8,N
1582424255.3,286046997.0,N
1582424275.2,286046998.2,N
1582424295.9,286047001.0,N
1582424315.7,286046998.4,N
1582424335.6,286046998.8,N
1582424355.4,286046998.8,N
1582424375.3,286046995.3,N
1582424395.1,286046995.4,N
1582424396.0,286046995.4,N
1582424415.8,286046996.5,N
1582424435.7,286046998.5,N
1582424455.5,286047002.5,N
1582424475.3,286047002.3,N
1582424495.2,286047003.9,N
1582424515.0,286047001.3,N
1582424515.9,286047001.3,N
1582424535.8,286047003.9,N
1582424555.6,286047001.7,N
1582424575.4,286047002.6,N
1582424595.3,286047005.7,N
1582424615.1,286047003.1,N
1582424635.9,286047003.2,N
1582424655.7,286047003.2,N
1582424675.5,286047001.5,N
1582424695.4,286047002.3,N
1582424715.2,286047003.2,N
1582424735.0,286047001.7,N
1582424735.9,286047001.7,N
1582424755.8,286046999.7,N
1582424775.6,286047001.3,N
1582424795.5,286047002.6,N
1582424815.3,286047001.0,N
1582424835.1,286047001.0,N
1582424855.9,286046998.6,N
1582424875.7,286047000.4,N
1582424895.6,286047000.8,N
1582424915.4,286047000.0,N
1582424935.2,286047002.6,N
1582424955.1,286047001.5,N
1582424956.0,286047001.5,N
1582424975.8,286047001.7,N
1582424995.7,286046999.8,N
1582425015.5,286047001.1,N
1582425035.3,286046999.0,N
1582425055.2,286047000.3,N
1582425075.9,286046999.0,N
1582425095.7,286046996.7,N
1582425115.6,286046998.0,N
1582425135.4,286046998.0,N
1582425155.3,286046997.8,N
1582425175.1,286047001.1,N
1582425176.0,286047001.1,N
1582425195.8,286047002.2,N
1582425215.7,286047001.8,N
1582425235.5,286046999.8,N
1582425255.4,286047001.1,N
1582425275.2,286047000.7,N
1582425295.0,286047000.8,N
1582425295.9,286047000.8,N
1582425315.8,286046998.1,N
1582425335.6,286047011.9,Y
1582425355.4,286046998.9,P
1582425375.3,286046998.6,N
1582425395.1,286046999.4,N
1582425415.9,286047005.5,Y
1582425435.7,286047003.2,P
1582425455.5,286047000.4,N
1582425475.4,286046998.9,N
1582425495.2,286047005.3,Y
1582425515.1,286047006.4,P
1582425516.0,286047006.4,N
1582425535.8,286047005.3,N
1582425555.6,286047003.8,N
1582425575.5,286047006.5,N
1582425595.3,286047010.7,Y
1582425615.2,286047003.1,P
1582425635.9,286047004.2,P
1582425655.7,286047000.6,N
1582425675.6,286046999.0,N
1582425695.4,286046998.1,N
1582425715.3,286047001.2,N
1582425735.1,286046998.9,N
1582425736.0,286046998.9,N
1582425755.8,286046996.5,N
1582425775.7,286046997.2,N
1582425795.5,286046997.3,N
1582425815.3,286046997.6,N
1582425835.2,286046993.9,N
1582425855.0,286046994.8,N
1582425855.9,286046994.8,N
1582425875.8,286046990.8,N
1582425895.6,286046992.5,N
1582425915.5,286046991.9,N
1582425935.3,286046990.5,N
1582425955.1,286046993.0,N
1582425975.9,286046990.6,N
1582425995.7,286046992.5,N
1582426015.5,286046992.3,N
1582426035.4,286046993.9,N
1582426055.2,286046996.4,N
1582426075.1,286046994.1,N
1582426076.0,286046994.1,N
1582426095.8,286046996.2,N
1582426115.6,286046994.5,N
1582426135.5,286046994.1,N
1582426155.3,286046992.1,N
1582426175.1,286046991.9,N
1582426195.9,286046996.0,N
1582426215.7,286046995.3,N
1582426235.6,286046997.7,N
1582426255.4,286046997.9,N
1582426275.2,286046996.2,N
1582426295.1,286046993.6,N
1582426296.0,286046993.6,N
1582426315.8,286046993.4,Y
1582426335.7,286047000.4,P
1582426355.5,286047003.8,N
1582426375.3,286047001.5,N
1582426395.2,286047003.9,N
1582426415.0,286047004.0,N
1582426415.9,286047004.0,N
1582426435.8,286047003.2,N
1582426455.6,286047002.9,N
1582426475.4,286047005.6,N
1582426495.3,286047005.9,N
1582426515.1,286047006.8,N
1582426535.8,286047006.8,N
1582426555.7,286047007.6,N
1582426575.5,286047005.8,N
1582426595.4,286047006.6,N
1582426615.2,286047006.7,N
1582426635.0,286047005.4,N
1582426635.9,286047005.4,N
1582426655.8,286047004.5,N
1582426675.6,286047005.8,N
1582426695.5,286047002.4,N
1582426715.3,286047000.7,N
1582426735.1,286046998.2,N
1582426755.9,286046999.4,N
1582426775.7,286046999.2,N
1582426795.6,286047000.9,N
